[[{"header":{"parameterUnit":"m.s-1","parameterCategory":1,"la1":30.2992,"la2":30.254,"lo1":-89.0895,"lo2":-89.0443,"dy":0.0025,"dx":0.0025,"nx":19,"ny":19,"refTime":"2026-04-20T09:00:00:Z","depth":0,"parameterNumber":2,"parameterNumberName":"U-component_of_WINDS"},"data":[0,0,0,-6.3982,-6.3985,-6.4097,-6.4097,-6.4246,-6.4248,0,0,0,0,0,0,0,0,0,0,0,-6.3953,-6.3955,-6.3982,-6.3985,-6.4097,-6.4097,-6.4246,-6.4248,0,0,0,0,0,0,0,0,0,0,0,-6.3953,-6.3954,-6.3956,-6.3986,-6.4096,-6.4097,-6.4246,-6.4159,0,0,0,0,0,0,0,0,0,0,-6.4049,-6.4027,-6.3954,-6.3956,-6.3986,-6.4096,-6.4097,-6.4155,-6.4164,-6.4199,0,-6.423,0,-6.4242,-6.4258,-6.4259,0,0,0,-6.3982,-6.4019,-6.4045,-6.3956,-6.3987,-6.4096,-6.4045,-6.416,-6.4171,-6.4212,-6.4232,-6.4238,-6.4244,-6.4259,-6.426,-6.447,-6.4471,0,0,-6.3976,-6.3975,-6.4038,-6.4053,-6.4036,-6.4042,-6.4049,-6.4167,-6.4189,-6.4233,-6.4241,-6.4247,-6.426,-6.4261,-6.4468,-6.447,0,0,0,-6.396,-6.3971,-6.3995,-6.4047,-6.4066,-6.4045,-6.4053,-6.4184,-6.4192,-6.4243,-6.4248,-6.4261,-6.4263,-6.4467,-6.4469,-6.4523,0,0,0,-6.3956,-6.3962,-6.3992,-6.3993,-6.4064,-6.4126,-6.4068,-6.4183,-6.4197,-6.4248,-6.4261,-6.4264,-6.4466,-6.4468,-6.4519,-6.4548,0,0,0,-6.3945,-6.3961,-6.3978,-6.3993,-6.4041,-6.4125,-6.4139,-6.4186,-6.42,-6.4259,-6.4265,-6.4465,-6.4468,-6.4515,-6.4542,-6.4602,0,0,0,-6.3932,-6.4025,-6.3979,-6.4086,-6.404,-6.4159,-6.4138,-6.4226,-6.4283,-6.4262,-6.4466,-6.4469,-6.4514,-6.4538,-6.4598,-6.4651,-6.4673,0,0,-6.4049,-6.4039,-6.4102,-6.4064,-6.419,-6.4142,-6.4276,-6.4328,-6.4334,-6.4424,-6.4429,-6.4521,-6.4541,-6.4601,-6.4805,-6.4823,0,0,0,-6.4138,-6.4183,-6.4217,-6.4272,-6.4315,-6.4354,-6.4386,-6.4406,-6.4483,-6.438,-6.456,-6.4573,-6.4608,-6.4632,-6.4648,-6.4677,-6.4481,-6.4481,-6.4481,-6.43,-6.4305,-6.4409,-6.4427,-6.4481,-6.4514,-6.4558,-6.459,-6.4578,-6.4621,-6.4646,-6.4769,-6.4799,-6.481,-6.4841,-6.4677,-6.4677,-6.4677,-6.4677,-6.447,-6.4533,-6.4518,-6.4612,-6.4617,-6.4697,-6.4734,-6.4723,-6.4798,-6.475,-6.4781,-6.4725,-6.483,-6.4857,-6.4682,-6.4681,-6.468,-6.468,-6.468,-6.4574,-6.4605,-6.4629,-6.471,-6.4772,-6.4789,-6.4862,-6.4864,-6.4866,-6.4897,-6.4923,-6.4922,-6.492,-6.491,-6.4911,-6.4911,-6.4912,-6.4912,-6.4912,-6.467,-6.4696,-6.4757,-6.4814,-6.485,-6.4898,-6.4936,-6.4972,-6.5012,-6.5007,-6.5008,-6.499,-6.484,-6.4801,-6.4919,-6.4917,-6.4917,-6.4916,-6.4916,-6.4834,-6.4799,-6.4893,-6.493,-6.4997,-6.5059,-6.5063,-6.5136,-6.5166,-6.5202,-6.5181,-6.5071,-6.506,-6.5047,-6.5014,-6.518,-6.518,-6.518,-6.518,-6.492,-6.4916,-6.5014,-6.5073,-6.5131,-6.5144,-6.5252,-6.5284,-6.531,-6.5329,-6.5307,-6.5265,-6.5253,-6.5249,-6.5232,-6.5201,-6.5411,-6.5412,-6.5412,-6.502,-6.5023,-6.5113,-6.5139,-6.5193,-6.5239,-6.534,-6.5409,-6.5432,-6.5421,-6.5344,-6.5334,-6.5267,-6.5245,-6.5227,-6.5202,-6.5145,0,0]},{"header":{"parameterUnit":"m.s-1","parameterCategory":1,"la1":30.2992,"la2":30.254,"lo1":-89.0895,"lo2":-89.0443,"dy":0.0025,"dx":0.0025,"nx":19,"ny":19,"refTime":"2026-04-20T09:00:00:Z","depth":0,"parameterNumber":3,"parameterNumberName":"V-component_of_WINDS"},"data":[0,0,0,4.5197,4.5197,4.5219,4.5219,4.5243,4.5243,0,0,0,0,0,0,0,0,0,0,0,4.5189,4.5189,4.5197,4.5197,4.5219,4.5219,4.5243,4.5243,0,0,0,0,0,0,0,0,0,0,0,4.5189,4.5189,4.5189,4.5197,4.5219,4.5219,4.5243,4.5227,0,0,0,0,0,0,0,0,0,0,4.5207,4.5199,4.5189,4.5189,4.5197,4.5219,4.5219,4.5227,4.5228,4.5232,0,4.5236,0,4.524,4.5244,4.5244,0,0,0,4.5197,4.5198,4.5205,4.519,4.5197,4.5218,4.5209,4.5227,4.5229,4.5234,4.5236,4.5237,4.524,4.5245,4.5245,4.5271,4.5271,0,0,4.5196,4.5192,4.5204,4.5206,4.5204,4.5208,4.521,4.5229,4.523,4.5236,4.5238,4.5241,4.5245,4.5245,4.5271,4.5271,0,0,0,4.5193,4.5191,4.5198,4.5205,4.5209,4.5209,4.521,4.5229,4.5232,4.5238,4.5241,4.5245,4.5245,4.527,4.5271,4.5273,0,0,0,4.5192,4.5189,4.5197,4.5195,4.5209,4.522,4.521,4.5231,4.5233,4.5241,4.5245,4.5245,4.527,4.527,4.5273,4.5274,0,0,0,4.5188,4.5188,4.5192,4.5194,4.5204,4.522,4.5223,4.5231,4.5235,4.5244,4.5245,4.527,4.527,4.5273,4.5274,4.5281,0,0,0,4.5182,4.5191,4.5192,4.5203,4.5204,4.5222,4.5223,4.5236,4.5245,4.5245,4.527,4.5271,4.5273,4.5274,4.5281,4.5286,4.5288,0,0,4.5191,4.5192,4.52,4.5201,4.5218,4.5219,4.5237,4.5247,4.525,4.5263,4.5264,4.5273,4.5274,4.5281,4.5302,4.5303,0,0,0,4.5201,4.5206,4.5212,4.5222,4.5232,4.5241,4.5251,4.5255,4.5267,4.5257,4.5278,4.5279,4.5283,4.5285,4.5287,4.5291,4.5272,4.5272,4.5272,4.5206,4.5214,4.5227,4.5237,4.5247,4.5258,4.5266,4.5274,4.5276,4.5281,4.5284,4.5296,4.5299,4.5301,4.5305,4.5288,4.5288,4.5288,4.5288,4.522,4.5229,4.5236,4.5251,4.5259,4.5271,4.5283,4.5285,4.5297,4.5294,4.5298,4.5293,4.5302,4.5306,4.5289,4.5289,4.5289,4.5289,4.5289,4.5224,4.5229,4.5237,4.5255,4.5267,4.5277,4.529,4.5296,4.5301,4.5305,4.531,4.531,4.5311,4.5308,4.5308,4.5308,4.5308,4.5308,4.5308,4.5224,4.5233,4.5244,4.5259,4.5268,4.528,4.5294,4.5302,4.5313,4.5316,4.5316,4.5318,4.5302,4.5298,4.5308,4.5308,4.5308,4.5308,4.5308,4.5234,4.5234,4.525,4.526,4.5279,4.5292,4.5301,4.5319,4.5326,4.5333,4.5335,4.5323,4.5323,4.5322,4.5319,4.5334,4.5334,4.5334,4.5334,4.5236,4.5239,4.5259,4.5274,4.5289,4.53,4.5319,4.5332,4.5343,4.5349,4.5348,4.5344,4.5343,4.5344,4.5342,4.5339,4.5359,4.5359,4.5359,4.5243,4.5248,4.5263,4.5278,4.5295,4.5309,4.5328,4.5344,4.5357,4.536,4.5353,4.5352,4.5346,4.5344,4.5344,4.5342,4.5336,0,0]}]]